Weather History for KARB - January, 2013

Change the Weather History Date:

Friday, January 25, 2013

  Actual Average (KDTW) Record (KDTW)
Temperature  
Mean Temperature 16 °F 25 °F  
Max Temperature 19 °F 32 °F 67 °F (1950)
Min Temperature 12 °F 19 °F -16 °F (1897)
Degree Days  
Heating Degree Days 50 40  
Month to date heating degree days 990  
Since 1 July heating degree days 3287  
Cooling Degree Days 0 0  
Month to date cooling degree days 0  
Year to date cooling degree days 0  
Moisture  
Dew Point 13 °F    
Average Humidity 82    
Maximum Humidity 96    
Minimum Humidity 64    
Precipitation  
Precipitation 0.06 in 0.06 in 0.55 in (1952)
Month to date precipitation 1.61  
Year to date precipitation 1.61  
Snow  
Snow 0.00 in 0.30 in 4.00 in (1898)
Month to date snowfall 10.1  
Since 1 July snowfall 21.3  
Snow Depth -    
Sea Level Pressure  
Sea Level Pressure 30.14 in    
Wind  
Wind Speed 4 mph (SSE)    
Max Wind Speed 8 mph    
Max Gust Speed -    
Visibility 4 miles    
Events Fog , Snow    
T = Trace of Precipitation, MM = Missing Value Source: NWS Daily Summary

Daily Weather History Graph

Daily Weather History Graph

Search for Another Location

Airport or City:

Trip Planner

Search our weather history database for the weather conditions in past years. The results will help you decide how hot, cold, wet, or windy it might be!

Date:

Astronomy

Jan. 25, 2013 Rise Set
Actual Time 7:54 AM EST 5:40 PM EST
Civil Twilight 7:24 AM EST 6:10 PM EST
Nautical Twilight 6:50 AM EST 6:44 PM EST
Astronomical Twilight 6:17 AM EST 7:18 PM EST
Moon 4:37 PM EST (1/25) 6:33 AM EST (1/25)
Length of Visible Light 10h 46m
Length of Day
9h 46m
Waxing Gibbous, 98% of the Moon is Illuminated
Jan 25
Waxing Gibbous
Jan 26
Full
Feb 3
Last Quarter
Feb 10
New
Feb 17
First Quarter

Hourly Weather History & Observations

Time (EST) Temp. Windchill Dew Point Humidity Pressure Visibility Wind Dir Wind Speed Gust Speed Precip Events Conditions
12:53 AM 12.9 °F - 3.0 °F 65% 30.49 in 10.0 mi Calm Calm - N/A   Partly Cloudy
1:53 AM 12.9 °F 6.9 °F 5.0 °F 71% 30.48 in 10.0 mi ESE 3.5 mph - N/A   Overcast
2:53 AM 14.0 °F 8.2 °F 3.9 °F 64% 30.46 in 10.0 mi SSE 3.5 mph - N/A   Overcast
3:53 AM 14.0 °F 6.5 °F 6.1 °F 71% 30.41 in 10.0 mi SSE 4.6 mph - N/A   Overcast
4:53 AM 14.0 °F 8.2 °F 6.1 °F 71% 30.38 in 10.0 mi SSE 3.5 mph - N/A   Overcast
5:53 AM 15.1 °F 7.7 °F 7.0 °F 70% 30.32 in 10.0 mi SE 4.6 mph - N/A   Overcast
6:53 AM 15.1 °F 5.2 °F 8.1 °F 74% 30.31 in 2.0 mi SE 6.9 mph - 0.00 in Snow Light Snow
7:00 AM 15.8 °F 7.2 °F 8.6 °F 73% 30.25 in 1.5 mi SE 5.8 mph - 0.00 in Snow Light Snow
7:44 AM 15.8 °F 8.6 °F 10.4 °F 79% 30.22 in 1.2 mi SE 4.6 mph - 0.00 in Snow Light Snow
7:53 AM 15.1 °F 6.4 °F 10.9 °F 84% 30.27 in 1.2 mi SE 5.8 mph - 0.01 in Snow Light Snow
8:07 AM 15.8 °F 8.6 °F 10.4 °F 79% 30.21 in 1.0 mi SE 4.6 mph - 0.00 in Snow Light Snow
8:29 AM 15.8 °F 10.2 °F 12.2 °F 86% 30.20 in 0.2 mi SE 3.5 mph - 0.02 in Fog , Snow Heavy Snow
8:53 AM 15.1 °F 9.4 °F 12.9 °F 91% 30.24 in 0.2 mi ESE 3.5 mph - 0.04 in Fog , Snow Snow
9:04 AM 15.8 °F 7.2 °F 12.2 °F 86% 30.18 in 0.8 mi SE 5.8 mph - 0.00 in Snow Light Snow
9:11 AM 15.8 °F 7.2 °F 12.2 °F 86% 30.18 in 1.5 mi SSE 5.8 mph - 0.00 in Snow Light Snow
9:16 AM 15.8 °F 10.2 °F 12.2 °F 86% 30.18 in 3.0 mi SE 3.5 mph - 0.00 in Snow Light Snow
9:24 AM 15.8 °F 6.1 °F 12.2 °F 86% 30.18 in 7.0 mi SE 6.9 mph - 0.00 in   Overcast
9:53 AM 17.1 °F 8.7 °F 12.9 °F 84% 30.21 in 10.0 mi SE 5.8 mph - 0.00 in   Overcast
10:53 AM 18.0 °F 9.8 °F 12.9 °F 81% 30.19 in 3.0 mi Variable 5.8 mph - 0.00 in Snow Light Snow
11:01 AM 17.6 °F 7.3 °F 12.2 °F 79% 30.14 in 2.0 mi SE 8.1 mph - 0.00 in Snow Light Snow
2:53 PM 19.0 °F 9.0 °F 12.9 °F 77% 30.06 in 3.0 mi SSW 8.1 mph - 0.00 in Snow Light Snow
3:26 PM 19.4 °F 9.5 °F 12.2 °F 74% 30.01 in 5.0 mi South 8.1 mph - 0.00 in Snow Light Snow
3:53 PM 19.0 °F 10.0 °F 12.9 °F 77% 30.05 in 7.0 mi South 6.9 mph - 0.00 in Snow Light Snow
4:08 PM 19.4 °F 10.4 °F 12.2 °F 74% 30.00 in 5.0 mi South 6.9 mph - 0.00 in Snow Light Snow
4:37 PM 19.4 °F 10.4 °F 14.0 °F 80% 29.99 in 4.0 mi SSW 6.9 mph - 0.00 in Snow Light Snow
4:53 PM 19.0 °F 11.1 °F 14.0 °F 81% 30.04 in 4.0 mi South 5.8 mph - 0.00 in Snow Light Snow
5:53 PM 19.0 °F 12.3 °F 14.0 °F 81% 30.04 in 8.0 mi South 4.6 mph - 0.00 in   Overcast
6:33 PM 19.4 °F 14.3 °F 15.8 °F 86% 30.01 in 2.5 mi SSW 3.5 mph - 0.00 in Snow Light Snow
6:48 PM 19.4 °F 12.8 °F 15.8 °F 86% 30.01 in 1.8 mi SSW 4.6 mph - 0.00 in Snow Light Snow
6:53 PM 19.0 °F 12.3 °F 16.0 °F 88% 30.05 in 1.8 mi SSW 4.6 mph - 0.00 in Snow Light Snow
7:06 PM 19.4 °F 12.8 °F 15.8 °F 86% 30.00 in 1.2 mi South 4.6 mph - 0.00 in Snow Light Snow
7:21 PM 19.4 °F 14.3 °F 15.8 °F 86% 30.01 in 1.8 mi South 3.5 mph - 0.01 in Snow Light Snow
7:32 PM 19.4 °F 12.8 °F 17.6 °F 93% 30.01 in 2.5 mi South 4.6 mph - 0.01 in Snow Light Snow
7:38 PM 19.4 °F 14.3 °F 15.8 °F 86% 30.01 in 3.0 mi South 3.5 mph - 0.01 in Snow Light Snow
7:53 PM 19.0 °F 13.9 °F 16.0 °F 88% 30.06 in 3.0 mi SSW 3.5 mph - 0.01 in Snow Light Snow
8:53 PM 19.0 °F - 16.0 °F 88% 30.05 in 4.0 mi Calm Calm - 0.00 in Snow Light Snow
9:53 PM 18.0 °F - 16.0 °F 92% 30.06 in 5.0 mi Calm Calm - 0.00 in Snow Light Snow
10:20 PM 19.4 °F 11.5 °F 15.8 °F 86% 30.01 in 2.5 mi SSW 5.8 mph - 0.00 in Snow Light Snow
10:46 PM 19.4 °F 14.3 °F 17.6 °F 93% 30.01 in 3.0 mi South 3.5 mph - 0.00 in Snow Light Snow
10:53 PM 19.0 °F 13.9 °F 17.1 °F 92% 30.05 in 2.5 mi South 3.5 mph - 0.00 in Snow Light Snow
10:58 PM 19.4 °F 12.8 °F 17.6 °F 93% 30.01 in 3.0 mi South 4.6 mph - 0.00 in Snow Light Snow
11:31 PM 19.4 °F - 17.6 °F 93% 30.02 in 3.0 mi Calm Calm - 0.00 in Snow Light Snow
11:53 PM 19.0 °F - 18.0 °F 96% 30.06 in 4.0 mi Calm Calm - 0.00 in Snow Light Snow